GFSNW_prec_kuchsnow_357.txt.gz
Snowfall_Accumulation
0.0 0.0 0.0 0.0 0.0 0.0 0.0 0.0 17.9 0.0 0.0 11.6 27.6 21.9 3.8 0.0 0.0 0.0 1.1 2.5 5.4 9.0 8.6 10.1 13.5 7.8 1.8 0.0 0.6 2.7 1.8 14.6 10.9 4.0 0.6 0.6 3.4 16.7 28.0 60.7 59.0 45.6 44.8 51.2
0.0 0.0 0.0 0.0 0.0 0.0 0.0 6.6 4.3 0.0 0.0 37.8 20.0 2.7 1.6 0.9 1.6 0.8 2.2 4.2 4.9 6.5 11.4 15.6 5.9 4.5 0.0 0.0 0.8 5.8 3.4 14.2 14.6 6.2 0.9 0.2 3.8 4.7 9.5 22.5 32.8 53.1 56.7 55.0
0.0 0.0 0.0 0.0 0.0 0.0 0.0 5.2 35.3 3.8 2.7 1.5 3.2 5.2 4.3 4.4 0.0 0.7 0.1 3.4 4.0 5.8 4.4 1.9 6.8 4.4 0.2 0.0 0.0 0.0 0.0 10.7 14.0 16.1 10.6 6.1 13.0 6.8 4.4 11.8 49.1 34.1 32.2 29.9
0.0 0.0 0.0 0.0 0.0 0.0 0.0 12.5 24.8 0.1 21.5 12.2 5.0 4.1 5.8 6.1 5.7 0.5 0.2 3.5 3.4 7.3 13.3 4.7 2.6 1.3 0.4 0.0 0.2 0.0 0.5 16.5 6.2 4.0 4.0 2.4 5.1 8.6 5.2 10.6 11.7 25.7 26.6 18.6
0.0 0.0 0.0 0.0 0.0 0.0 0.0 47.3 8.6 1.8 2.0 0.1 2.9 10.5 14.6 7.1 1.4 5.0 2.1 3.7 1.7 2.9 10.1 4.6 8.3 3.1 0.4 2.7 0.0 0.2 0.1 8.0 7.2 7.2 3.3 1.2 10.4 8.5 5.3 5.2 8.4 11.1 6.5 15.1
0.0 0.0 0.0 0.0 0.0 0.0 0.0 1.4 0.0 3.5 3.0 1.8 5.9 4.8 2.7 3.7 2.7 0.3 0.7 1.7 4.4 4.9 2.1 0.3 0.2 0.5 0.8 2.0 4.1 3.2 3.3 6.3 6.9 12.0 0.9 3.2 16.1 17.0 8.9 5.7 3.8 4.5 8.7 14.7
0.0 0.0 0.0 0.0 0.0 0.0 0.0 0.0 0.6 14.3 17.6 5.2 2.5 0.3 1.0 1.8 1.5 5.6 1.1 0.3 2.0 0.0 0.0 0.0 0.0 0.2 0.1 0.1 0.8 1.0 5.8 5.6 8.2 12.1 6.6 41.6 12.5 1.6 2.0 2.4 2.3 2.6 2.7 2.9
0.0 0.0 0.0 0.0 0.0 0.0 0.0 0.0 0.1 10.4 18.2 1.5 2.0 2.0 2.8 0.2 0.5 2.0 1.3 0.6 0.0 0.0 0.6 3.5 5.8 3.0 1.8 0.7 0.1 0.5 1.0 4.8 17.1 22.0 12.0 9.3 5.8 1.9 2.7 2.8 3.5 1.6 1.1 0.6
0.0 0.0 0.0 0.0 0.0 0.0 0.0 0.0 0.0 5.9 23.7 5.9 0.4 4.7 3.2 5.8 2.9 3.8 1.8 0.0 0.0 0.0 3.1 10.9 17.4 7.3 2.9 1.7 0.9 0.0 0.4 2.0 20.5 20.6 22.3 28.4 6.0 0.5 0.1 0.6 6.9 0.8 0.2 0.3
0.0 0.0 0.0 0.0 0.0 0.0 0.0 0.0 0.0 2.4 26.8 0.2 0.4 2.3 4.6 2.0 3.2 5.0 0.8 1.2 0.1 0.5 8.4 15.1 14.2 10.4 3.9 9.0 6.9 4.4 8.4 14.0 30.6 27.0 33.8 14.5 1.6 0.6 0.2 9.6 10.0 0.8 0.1 0.1
0.0 0.0 0.0 0.0 0.0 0.0 0.0 0.0 0.0 0.0 10.7 0.5 0.0 0.0 0.5 0.6 0.9 7.2 2.4 7.3 5.0 8.7 20.0 17.9 13.2 12.8 9.2 7.8 2.4 8.6 13.7 18.8 19.5 19.7 32.2 33.9 1.2 1.0 4.0 4.6 0.5 0.5 0.2 0.1
0.0 0.0 0.0 0.0 0.0 0.0 0.0 2.1 0.0 0.0 1.6 0.0 0.0 0.0 0.0 0.0 0.0 0.9 2.4 6.5 6.8 9.1 21.7 14.3 5.8 9.6 10.5 7.1 16.4 1.4 13.8 8.3 14.1 10.9 18.1 6.1 3.9 3.7 1.0 0.4 1.2 1.0 0.3 0.1
0.0 0.0 0.0 0.0 0.0 0.0 0.0 0.7 0.0 0.0 6.9 0.1 0.0 0.0 0.0 0.0 0.0 0.0 2.8 0.9 1.1 3.7 3.0 8.4 7.7 10.8 5.2 10.6 5.2 3.4 2.1 0.3 6.3 8.6 5.8 2.5 4.2 1.9 0.4 0.4 1.9 1.2 0.3 0.7
0.0 0.0 0.0 0.0 0.0 0.0 0.0 0.0 0.0 0.0 1.5 12.6 0.9 0.0 0.0 0.0 0.0 0.0 0.0 0.0 0.0 0.0 0.0 5.7 6.4 6.0 1.0 3.4 1.7 0.9 1.8 1.7 3.8 7.2 4.3 2.2 1.7 2.0 1.3 1.1 0.7 0.5 0.2 0.2
0.0 0.0 0.0 0.0 0.0 0.0 0.0 0.0 0.0 0.0 0.8 14.7 3.8 0.0 0.0 0.0 0.0 0.0 0.0 0.0 0.0 0.0 3.1 5.7 3.6 0.5 1.8 0.4 1.1 3.9 1.0 3.6 8.8 10.6 6.5 6.1 5.6 4.0 3.0 3.3 2.3 1.0 0.8 1.0
0.0 0.0 0.0 0.0 0.0 0.0 0.0 29.8 0.0 0.0 0.0 9.0 10.3 0.0 0.0 0.0 0.0 0.0 0.0 0.0 0.0 0.1 1.1 2.0 0.3 0.0 1.1 4.4 6.1 3.7 3.2 1.7 1.6 3.6 3.7 7.1 7.3 4.4 2.3 2.3 1.0 0.1 0.0 0.0
0.0 0.0 0.0 0.0 0.0 0.0 1.9 7.1 0.1 0.0 0.0 12.0 15.0 3.2 0.0 0.0 0.0 0.0 0.0 0.0 0.1 0.6 1.6 1.5 0.3 0.0 0.3 4.6 6.0 1.2 0.8 0.4 0.2 0.2 0.2 1.2 0.7 0.7 0.0 0.0 0.0 0.0 0.0 0.0
0.0 0.0 0.0 0.0 0.0 0.0 0.4 0.0 0.0 0.0 0.8 3.5 19.5 7.8 1.5 0.0 2.2 3.1 0.5 1.3 0.7 0.6 0.7 0.5 0.7 0.2 0.9 12.5 1.0 0.0 0.0 0.0 0.0 0.0 0.0 0.0 0.0 0.0 0.0 0.0 0.0 0.0 0.0 0.0
0.0 0.0 0.0 0.0 0.0 10.9 0.0 0.0 0.0 0.0 3.6 17.0 6.5 4.9 17.9 0.0 2.4 2.0 2.5 0.4 10.2 0.4 3.6 0.6 0.4 4.1 17.1 9.4 1.8 0.8 0.2 0.1 0.1 0.0 0.0 0.0 0.1 0.1 0.0 0.6 0.6 0.1 0.6 2.1
0.0 0.0 4.6 58.4 4.1 0.0 0.0 1.0 19.6 14.1 5.1 3.1 3.7 0.5 8.0 1.9 3.8 6.7 6.2 3.2 5.6 8.9 1.4 0.0 5.4 8.9 3.1 1.1 1.2 1.8 1.1 1.4 0.6 0.5 0.4 0.8 0.8 1.0 1.5 1.9 2.4 2.8 3.1 3.5
0.0 25.6 27.2 0.6 0.0 0.0 5.6 51.2 39.7 16.7 18.1 1.5 1.7 0.4 1.5 2.0 11.8 6.7 3.0 10.3 5.2 11.1 4.6 4.7 10.3 15.2 6.6 3.2 4.4 1.7 0.6 0.5 0.7 1.0 1.2 1.3 1.1 1.3 1.6 2.7 1.6 2.2 2.4 2.9
0.0 0.0 0.0 0.0 8.6 27.2 36.7 34.3 14.6 6.7 3.1 0.5 0.3 0.2 0.2 0.7 1.8 8.6 5.3 10.4 12.0 16.5 5.1 14.8 20.2 9.9 4.0 3.3 3.4 1.0 0.4 0.1 0.1 0.3 0.5 0.9 1.1 1.3 1.4 2.0 2.5 3.1 3.8 4.8
0.0 5.1 24.5 18.0 34.5 50.3 29.4 19.5 8.6 7.6 3.0 2.2 0.8 3.5 1.1 0.5 6.5 13.5 8.8 13.4 15.8 3.9 18.5 26.8 21.9 6.3 2.5 2.3 1.8 1.5 0.9 0.9 0.8 1.4 1.5 1.5 1.7 2.4 3.0 3.9 6.0 6.2 7.3 10.5
13.8 31.2 42.7 24.0 21.4 9.7 8.1 4.9 3.5 3.5 4.1 3.5 1.3 2.8 5.8 5.4 16.2 20.8 22.6 14.2 5.0 18.2 22.9 27.2 14.7 7.0 7.0 4.1 3.4 3.1 5.5 5.9 5.7 6.3 6.4 7.7 7.8 9.3 10.2 9.4 10.1 8.4 10.2 13.2
17.2 8.9 17.6 11.4 8.4 6.4 6.2 4.4 3.8 3.6 5.3 4.5 5.2 5.0 6.1 13.5 20.6 14.6 10.9 12.0 13.2 13.3 16.6 22.2 9.8 6.9 6.1 5.8 5.7 6.1 7.0 7.5 8.1 8.6 8.1 11.3 10.3 8.4 12.6 11.4 10.2 8.1 8.5 8.6
6.0 8.5 13.3 6.8 6.1 8.0 8.4 6.9 7.1 3.9 7.2 5.4 5.9 11.8 16.0 19.4 12.1 12.9 11.4 9.1 18.7 16.9 9.7 8.8 8.5 8.1 8.7 9.1 9.1 9.6 9.8 9.0 8.4 8.2 7.9 8.5 8.6 8.1 8.5 8.8 8.2 8.0 6.5 6.7
6.7 12.5 12.5 11.9 9.3 12.4 12.7 10.1 8.2 5.1 5.1 11.4 6.0 16.6 17.3 9.5 14.6 18.9 13.6 22.1 24.2 13.6 12.0 10.4 10.2 10.1 11.0 10.5 10.1 10.7 9.3 7.8 7.3 7.1 6.6 6.4 5.9 4.6 3.2 4.6 7.0 5.1 5.3 5.1

GFSNW_prec_kuchsnow_363.txt.gz
Snowfall_Accumulation
0.0 0.0 0.0 0.0 0.0 0.0 0.0 0.0 17.9 0.0 0.0 11.6 27.6 21.9 3.8 0.0 0.0 0.0 1.1 2.5 5.4 9.0 8.6 10.1 13.5 7.8 1.8 0.0 0.6 2.7 1.8 14.6 10.9 4.0 0.6 0.6 3.4 16.7 28.0 60.7 59.0 45.6 44.8 51.3
0.0 0.0 0.0 0.0 0.0 0.0 0.0 6.6 4.3 0.0 0.0 37.8 20.0 2.7 1.6 0.9 1.6 0.8 2.2 4.2 4.9 6.5 11.4 15.6 5.9 4.5 0.0 0.0 0.8 5.8 3.4 14.2 14.6 6.2 0.9 0.2 3.8 4.7 9.5 22.5 32.8 53.1 56.8 55.0
0.0 0.0 0.0 0.0 0.0 0.0 0.0 5.2 35.3 3.8 2.7 1.5 3.2 5.2 4.3 4.4 0.0 0.7 0.1 3.4 4.0 5.8 4.4 1.9 6.8 4.4 0.2 0.0 0.0 0.0 0.0 10.7 14.0 16.1 10.6 6.1 13.0 6.8 4.4 11.8 49.1 34.1 32.2 29.9
0.0 0.0 0.0 0.0 0.0 0.0 0.0 12.5 24.8 0.1 21.5 12.2 5.0 4.1 5.8 6.1 5.7 0.5 0.2 3.5 3.4 7.3 13.3 4.7 2.6 1.3 0.4 0.0 0.2 0.0 0.5 16.5 6.2 4.0 4.0 2.4 5.1 8.6 5.2 10.6 11.7 25.7 26.6 18.6
0.0 0.0 0.0 0.0 0.0 0.0 0.0 47.3 8.6 1.8 2.0 0.1 2.9 10.5 14.6 7.1 1.4 5.0 2.1 3.7 1.7 2.9 10.1 4.6 8.3 3.1 0.4 2.7 0.0 0.2 0.1 8.0 7.2 7.2 3.3 1.2 10.4 8.5 5.3 5.2 8.4 11.1 6.5 15.1
0.0 0.0 0.0 0.0 0.0 0.0 0.0 1.4 0.0 3.5 3.0 1.8 5.9 4.8 2.7 3.7 2.7 0.3 0.7 1.7 4.4 4.9 2.1 0.3 0.2 0.5 0.8 2.0 4.1 3.2 3.3 6.3 6.9 12.6 0.9 3.2 16.1 17.0 8.9 5.7 3.8 4.5 8.7 14.7
0.0 0.0 0.0 0.0 0.0 0.0 0.0 0.0 0.6 14.3 17.6 5.2 2.5 0.3 1.0 1.8 1.5 5.6 1.1 0.3 2.0 0.0 0.0 0.0 0.0 0.2 0.1 0.1 0.8 1.0 5.8 5.6 8.2 12.1 6.6 42.7 12.5 1.6 2.0 2.4 2.3 2.6 2.7 2.9
0.0 0.0 0.0 0.0 0.0 0.0 0.0 0.0 0.1 10.4 18.2 1.5 2.0 2.0 2.8 0.2 0.5 2.0 1.3 0.6 0.0 0.0 0.6 3.5 5.8 3.0 1.8 0.7 0.1 0.5 1.0 4.8 17.1 22.1 12.1 9.5 5.8 1.9 2.7 2.8 3.5 1.6 1.1 0.6
0.0 0.0 0.0 0.0 0.0 0.0 0.0 0.0 0.0 5.9 23.7 5.9 0.4 4.7 3.2 5.8 2.9 3.8 1.8 0.0 0.0 0.0 3.1 10.9 17.4 7.3 2.9 1.7 0.9 0.0 0.4 2.0 20.5 20.6 22.4 29.2 6.0 0.5 0.1 0.6 6.9 0.8 0.2 0.3
0.0 0.0 0.0 0.0 0.0 0.0 0.0 0.0 0.0 2.4 26.8 0.2 0.4 2.3 4.6 2.0 3.2 5.0 0.8 1.2 0.1 0.5 8.4 15.1 14.2 10.4 3.9 9.0 6.9 4.4 8.4 14.0 30.6 27.0 33.8 14.5 1.6 0.6 0.2 9.6 10.0 0.8 0.1 0.1
0.0 0.0 0.0 0.0 0.0 0.0 0.0 0.0 0.0 0.0 10.7 0.5 0.0 0.0 0.5 0.6 0.9 7.2 2.4 7.3 5.0 8.7 20.0 17.9 13.2 12.8 9.2 7.8 2.4 8.6 13.7 18.8 19.5 19.7 32.2 33.9 1.2 1.0 4.0 4.6 0.5 0.5 0.2 0.1
0.0 0.0 0.0 0.0 0.0 0.0 0.0 2.1 0.0 0.0 1.6 0.0 0.0 0.0 0.0 0.0 0.0 0.9 2.4 6.5 6.8 9.1 21.7 14.3 5.8 9.6 10.5 7.1 16.4 1.4 13.8 8.3 14.1 10.9 18.1 6.1 3.9 3.7 1.0 0.4 1.2 1.0 0.3 0.1
0.0 0.0 0.0 0.0 0.0 0.0 0.0 0.7 0.0 0.0 6.9 0.1 0.0 0.0 0.0 0.0 0.0 0.0 2.8 0.9 1.1 3.7 3.0 8.4 7.7 10.8 5.2 10.6 5.2 3.4 2.1 0.3 6.3 8.6 5.8 2.5 4.2 1.9 0.4 0.4 1.9 1.2 0.3 0.7
0.0 0.0 0.0 0.0 0.0 0.0 0.0 0.0 0.0 0.0 1.5 12.6 0.9 0.0 0.0 0.0 0.0 0.0 0.0 0.0 0.0 0.0 0.0 5.7 6.4 6.0 1.0 3.4 1.7 0.9 1.8 1.7 3.8 7.2 4.3 2.2 1.7 2.0 1.3 1.1 0.7 0.5 0.2 0.2
0.0 0.0 0.0 0.0 0.0 0.0 0.0 0.0 0.0 0.0 0.8 14.7 3.8 0.0 0.0 0.0 0.0 0.0 0.0 0.0 0.0 0.0 3.1 5.7 3.6 0.5 1.8 0.4 1.1 3.9 1.0 3.6 8.8 10.6 6.5 6.1 5.6 4.0 3.0 3.3 2.3 1.0 0.8 1.0
0.0 0.0 0.0 0.0 0.0 0.0 0.0 29.8 0.0 0.0 0.0 9.0 10.3 0.0 0.0 0.0 0.0 0.0 0.0 0.0 0.0 0.1 1.1 2.0 0.3 0.0 1.1 4.4 6.1 3.7 3.2 1.7 1.6 3.6 3.7 7.1 7.3 4.4 2.3 2.3 1.0 0.1 0.0 0.0
0.0 0.0 0.0 0.0 0.0 0.0 1.9 7.1 0.1 0.0 0.0 12.0 15.0 3.2 0.0 0.0 0.0 0.0 0.0 0.0 0.1 0.6 1.6 1.5 0.3 0.0 0.3 4.6 6.0 1.2 0.8 0.4 0.2 0.2 0.2 1.2 0.7 0.7 0.0 0.0 0.0 0.0 0.0 0.0
0.0 0.0 0.0 0.0 0.0 0.0 0.4 0.0 0.0 0.0 0.8 3.5 19.5 7.8 1.5 0.0 2.2 3.1 0.5 1.3 0.7 0.6 0.7 0.5 0.7 0.2 0.9 12.5 1.0 0.0 0.0 0.0 0.0 0.0 0.0 0.0 0.0 0.0 0.0 0.0 0.0 0.0 0.0 0.0
0.0 0.0 0.0 0.0 0.0 10.9 0.0 0.0 0.0 0.0 3.6 17.0 6.5 4.9 17.9 0.0 2.4 2.0 2.5 0.4 10.2 0.4 3.6 0.6 0.4 4.1 17.1 9.4 1.8 0.8 0.2 0.1 0.1 0.0 0.0 0.0 0.1 0.1 0.0 0.6 0.6 0.1 0.6 2.1
0.0 0.0 4.6 58.4 4.1 0.0 0.0 1.0 19.6 14.1 5.1 3.1 3.7 0.5 8.0 1.9 3.8 6.7 6.2 3.2 5.6 8.9 1.4 0.0 5.4 8.9 3.1 1.1 1.2 1.8 1.1 1.4 0.6 0.5 0.4 0.8 0.8 1.0 1.5 1.9 2.4 2.8 3.1 3.5
0.0 26.0 27.2 0.6 0.0 0.0 5.6 51.2 39.7 16.7 18.1 1.5 1.7 0.4 1.5 2.0 11.8 6.7 3.0 10.3 5.2 11.1 4.6 4.7 10.3 15.2 6.6 3.2 4.4 1.7 0.6 0.5 0.7 1.0 1.2 1.3 1.1 1.3 1.6 2.7 1.6 2.2 2.4 2.9
0.0 0.0 0.0 0.0 8.6 27.2 36.7 34.3 14.6 6.7 3.1 0.5 0.3 0.2 0.2 0.7 1.8 8.6 5.3 10.4 12.0 16.5 5.1 14.8 20.2 9.9 4.0 3.3 3.4 1.0 0.4 0.1 0.1 0.3 0.5 0.9 1.1 1.3 1.4 2.0 2.5 3.1 3.8 4.8
0.0 5.1 24.5 18.0 34.5 50.5 29.4 19.5 8.6 7.6 3.0 2.2 0.8 3.5 1.1 0.5 6.5 13.5 8.8 13.4 15.8 3.9 18.5 26.8 21.9 6.3 2.5 2.3 1.8 1.5 0.9 0.9 0.8 1.4 1.5 1.5 1.7 2.4 3.0 3.9 6.0 6.2 7.3 10.5
14.7 32.3 44.5 24.8 21.5 9.7 8.1 4.9 3.5 3.5 4.1 3.5 1.3 2.8 5.8 5.4 16.2 20.8 22.6 14.2 5.0 18.2 22.9 27.2 14.7 7.0 7.0 4.1 3.4 3.1 5.5 5.9 5.7 6.3 6.4 7.7 7.8 9.3 10.2 9.4 10.1 8.4 10.2 13.2
18.2 9.4 17.8 11.4 8.4 6.4 6.2 4.4 3.8 3.6 5.3 4.5 5.2 5.0 6.1 13.5 20.6 14.6 10.9 12.0 13.2 13.3 16.6 22.2 9.8 6.9 6.1 5.8 5.7 6.1 7.0 7.5 8.1 8.6 8.1 11.3 10.3 8.4 12.6 11.4 10.2 8.1 8.5 8.6
6.4 8.5 13.3 6.8 6.1 8.0 8.4 6.9 7.1 3.9 7.2 5.4 5.9 11.8 16.0 19.4 12.1 12.9 11.4 9.1 18.7 16.9 9.7 8.8 8.5 8.1 8.7 9.1 9.1 9.6 9.8 9.0 8.4 8.2 7.9 8.5 8.6 8.1 8.5 8.8 8.2 8.0 6.5 6.7
6.8 12.5 12.5 11.9 9.3 12.4 12.7 10.1 8.2 5.1 5.1 11.4 6.0 16.6 17.3 9.5 14.6 18.9 13.6 22.1 24.2 13.6 12.0 10.4 10.2 10.1 11.0 10.5 10.1 10.7 9.3 7.8 7.3 7.1 6.6 6.4 5.9 4.6 3.2 4.6 7.0 5.1 5.3 5.1

GFSNW_prec_kuchsnow_366.txt.gz
Snowfall_Accumulation
0.0 0.0 0.0 0.0 0.0 0.0 0.0 0.0 17.9 0.0 0.0 11.6 27.6 21.9 3.8 0.0 0.0 0.0 1.1 2.5 5.4 9.0 8.6 10.1 13.5 7.8 1.8 0.0 0.6 2.7 1.8 14.6 10.9 4.0 0.6 0.6 3.4 16.7 28.0 60.8 59.0 45.6 44.8 51.3
0.0 0.0 0.0 0.0 0.0 0.0 0.0 6.6 4.3 0.0 0.0 37.8 20.0 2.7 1.6 0.9 1.6 0.8 2.2 4.2 4.9 6.5 11.4 15.6 5.9 4.5 0.0 0.0 0.8 5.8 3.4 14.2 14.6 6.2 0.9 0.2 3.8 4.7 9.5 22.5 32.8 53.1 56.9 55.0
0.0 0.0 0.0 0.0 0.0 0.0 0.0 5.2 35.3 3.8 2.7 1.5 3.2 5.2 4.3 4.4 0.0 0.7 0.1 3.4 4.0 5.8 4.4 1.9 6.8 4.4 0.2 0.0 0.0 0.0 0.0 10.7 14.0 16.1 10.6 6.1 13.0 6.8 4.4 11.8 49.1 34.1 32.2 29.9
0.0 0.0 0.0 0.0 0.0 0.0 0.0 12.5 24.8 0.1 21.5 12.2 5.0 4.1 5.8 6.1 5.7 0.5 0.2 3.5 3.4 7.3 13.3 4.7 2.6 1.3 0.4 0.0 0.2 0.0 0.5 16.5 6.2 4.0 4.0 2.4 5.1 8.6 5.2 10.6 11.7 25.7 26.6 18.6
0.0 0.0 0.0 0.0 0.0 0.0 0.0 47.3 8.6 1.8 2.0 0.1 2.9 10.5 14.6 7.1 1.4 5.0 2.1 3.7 1.7 2.9 10.1 4.6 8.3 3.1 0.4 2.7 0.0 0.2 0.1 8.0 7.2 7.2 3.3 1.2 10.4 8.5 5.3 5.2 8.4 11.1 6.5 15.1
0.0 0.0 0.0 0.0 0.0 0.0 0.0 1.4 0.0 3.5 3.0 1.8 5.9 4.8 2.7 3.7 2.7 0.3 0.7 1.7 4.4 4.9 2.1 0.3 0.2 0.5 0.8 2.0 4.1 3.2 3.3 6.3 6.9 12.7 0.9 3.2 16.1 17.0 8.9 5.7 3.8 4.5 8.7 14.7
0.0 0.0 0.0 0.0 0.0 0.0 0.0 0.0 0.6 14.3 17.6 5.2 2.5 0.3 1.0 1.8 1.5 5.6 1.1 0.3 2.0 0.0 0.0 0.0 0.0 0.2 0.1 0.1 0.8 1.0 5.8 5.6 8.2 12.1 6.6 42.7 12.5 1.6 2.0 2.4 2.3 2.6 2.7 2.9
0.0 0.0 0.0 0.0 0.0 0.0 0.0 0.0 0.1 10.4 18.2 1.5 2.0 2.0 2.8 0.2 0.5 2.0 1.3 0.6 0.0 0.0 0.6 3.5 5.8 3.0 1.8 0.7 0.1 0.5 1.0 4.8 17.1 22.1 12.1 9.5 5.8 1.9 2.7 2.8 3.5 1.6 1.1 0.6
0.0 0.0 0.0 0.0 0.0 0.0 0.0 0.0 0.0 5.9 23.7 5.9 0.4 4.7 3.2 5.8 2.9 3.8 1.8 0.0 0.0 0.0 3.1 10.9 17.4 7.3 2.9 1.7 0.9 0.0 0.4 2.0 20.5 20.6 22.4 29.3 6.0 0.5 0.1 0.6 6.9 0.8 0.2 0.3
0.0 0.0 0.0 0.0 0.0 0.0 0.0 0.0 0.0 2.4 26.8 0.2 0.4 2.3 4.6 2.0 3.2 5.0 0.8 1.2 0.1 0.5 8.4 15.1 14.2 10.4 3.9 9.0 6.9 4.4 8.4 14.0 30.6 27.0 33.8 14.5 1.6 0.6 0.2 9.7 10.0 0.8 0.1 0.1
0.0 0.0 0.0 0.0 0.0 0.0 0.0 0.0 0.0 0.0 10.7 0.5 0.0 0.0 0.5 0.6 0.9 7.2 2.4 7.3 5.0 8.7 20.0 17.9 13.2 12.8 9.2 7.8 2.4 8.6 13.7 18.8 19.5 19.7 32.2 33.9 1.2 1.0 4.0 4.6 0.5 0.5 0.2 0.1
0.0 0.0 0.0 0.0 0.0 0.0 0.0 2.1 0.0 0.0 1.6 0.0 0.0 0.0 0.0 0.0 0.0 0.9 2.4 6.5 6.8 9.1 21.7 14.3 5.8 9.6 10.5 7.1 16.4 1.4 13.8 8.3 14.1 10.9 18.1 6.1 3.9 3.7 1.0 0.4 1.2 1.0 0.3 0.1
0.0 0.0 0.0 0.0 0.0 0.0 0.0 0.7 0.0 0.0 6.9 0.1 0.0 0.0 0.0 0.0 0.0 0.0 2.8 0.9 1.1 3.7 3.0 8.4 7.7 10.8 5.2 10.6 5.2 3.4 2.1 0.3 6.3 8.6 5.8 2.5 4.2 1.9 0.4 0.4 1.9 1.2 0.3 0.7
0.0 0.0 0.0 0.0 0.0 0.0 0.0 0.0 0.0 0.0 1.5 12.6 0.9 0.0 0.0 0.0 0.0 0.0 0.0 0.0 0.0 0.0 0.0 5.7 6.4 6.0 1.0 3.4 1.7 0.9 1.8 1.7 3.8 7.2 4.3 2.2 1.7 2.0 1.3 1.1 0.7 0.5 0.2 0.2
0.0 0.0 0.0 0.0 0.0 0.0 0.0 0.0 0.0 0.0 0.8 14.7 3.8 0.0 0.0 0.0 0.0 0.0 0.0 0.0 0.0 0.0 3.1 5.7 3.6 0.5 1.8 0.4 1.1 3.9 1.0 3.6 8.8 10.6 6.5 6.1 5.6 4.0 3.0 3.3 2.3 1.0 0.8 1.0
0.0 0.0 0.0 0.0 0.0 0.0 0.0 29.8 0.0 0.0 0.0 9.0 10.3 0.0 0.0 0.0 0.0 0.0 0.0 0.0 0.0 0.1 1.1 2.0 0.3 0.0 1.1 4.4 6.1 3.7 3.2 1.7 1.6 3.6 3.7 7.1 7.3 4.4 2.3 2.3 1.0 0.1 0.0 0.0
0.0 0.0 0.0 0.0 0.0 0.0 1.9 7.1 0.1 0.0 0.0 12.0 15.0 3.2 0.0 0.0 0.0 0.0 0.0 0.0 0.1 0.6 1.6 1.5 0.3 0.0 0.3 4.6 6.0 1.2 0.8 0.4 0.2 0.2 0.2 1.2 0.7 0.7 0.0 0.0 0.0 0.0 0.0 0.0
0.0 0.0 0.0 0.0 0.0 0.0 0.4 0.0 0.0 0.0 0.8 3.5 19.5 7.8 1.5 0.0 2.2 3.1 0.5 1.3 0.7 0.6 0.7 0.5 0.7 0.2 0.9 12.5 1.0 0.0 0.0 0.0 0.0 0.0 0.0 0.0 0.0 0.0 0.0 0.0 0.0 0.0 0.0 0.0
0.0 0.0 0.0 0.0 0.0 10.9 0.0 0.0 0.0 0.0 3.6 17.0 6.5 4.9 17.9 0.0 2.4 2.0 2.5 0.4 10.2 0.4 3.6 0.6 0.4 4.1 17.1 9.4 1.8 0.8 0.2 0.1 0.1 0.0 0.0 0.0 0.1 0.1 0.0 0.6 0.6 0.1 0.6 2.1
0.0 0.0 4.6 58.4 4.1 0.0 0.0 1.0 19.6 14.1 5.1 3.1 3.7 0.5 8.0 1.9 3.8 6.7 6.2 3.2 5.6 8.9 1.4 0.0 5.4 8.9 3.1 1.1 1.2 1.8 1.1 1.4 0.6 0.5 0.4 0.8 0.8 1.0 1.5 1.9 2.4 2.8 3.1 3.5
0.0 26.0 27.2 0.6 0.0 0.0 5.6 51.2 39.7 16.7 18.1 1.5 1.7 0.4 1.5 2.0 11.8 6.7 3.0 10.3 5.2 11.1 4.6 4.7 10.3 15.2 6.6 3.2 4.4 1.7 0.6 0.5 0.7 1.0 1.2 1.3 1.1 1.3 1.6 2.7 1.6 2.2 2.4 2.9
0.0 0.0 0.0 0.0 8.6 27.2 36.7 34.3 14.6 6.7 3.1 0.5 0.3 0.2 0.2 0.7 1.8 8.6 5.3 10.4 12.0 16.5 5.1 14.8 20.2 9.9 4.0 3.3 3.4 1.0 0.4 0.1 0.1 0.3 0.5 0.9 1.1 1.3 1.4 2.0 2.5 3.1 3.8 4.8
0.0 5.5 26.1 18.0 34.5 51.8 30.1 19.6 8.6 7.6 3.0 2.2 0.8 3.5 1.1 0.5 6.5 13.5 8.8 13.4 15.8 3.9 18.5 26.8 21.9 6.3 2.5 2.3 1.8 1.5 0.9 0.9 0.8 1.4 1.5 1.5 1.7 2.4 3.0 3.9 6.0 6.2 7.3 10.5
14.7 33.8 46.1 25.1 21.5 9.8 8.1 4.9 3.5 3.5 4.1 3.5 1.3 2.8 5.8 5.4 16.2 20.8 22.6 14.2 5.0 18.2 22.9 27.2 14.7 7.0 7.0 4.1 3.4 3.1 5.5 5.9 5.7 6.3 6.4 7.7 7.8 9.3 10.2 9.4 10.1 8.4 10.2 13.2
19.1 10.6 18.9 11.4 8.4 6.4 6.2 4.4 3.8 3.6 5.3 4.5 5.2 5.0 6.1 13.5 20.6 14.6 10.9 12.0 13.2 13.3 16.6 22.2 9.8 6.9 6.1 5.8 5.7 6.1 7.0 7.5 8.1 8.6 8.1 11.3 10.3 8.4 12.6 11.4 10.2 8.1 8.5 8.6
6.8 8.9 13.7 6.8 6.1 8.0 8.4 6.9 7.1 3.9 7.2 5.4 5.9 11.8 16.0 19.4 12.1 12.9 11.4 9.1 18.7 16.9 9.7 8.8 8.5 8.1 8.7 9.1 9.1 9.6 9.8 9.0 8.4 8.2 7.9 8.5 8.6 8.1 8.5 8.8 8.2 8.0 6.5 6.7
6.9 12.7 12.5 11.9 9.3 12.4 12.7 10.1 8.2 5.1 5.1 11.4 6.0 16.6 17.3 9.5 14.6 18.9 13.6 22.1 24.2 13.6 12.0 10.4 10.2 10.1 11.0 10.5 10.1 10.7 9.3 7.8 7.3 7.1 6.6 6.4 5.9 4.6 3.2 4.6 7.0 5.1 5.3 5.1

GFSNW_prec_kuchsnow_369.txt.gz
Snowfall_Accumulation
0.0 0.0 0.0 0.0 0.0 0.0 0.0 0.0 17.9 0.0 0.0 11.6 27.6 21.9 3.8 0.0 0.0 0.0 1.1 2.5 5.4 9.0 8.6 10.1 13.5 7.8 1.8 0.0 0.6 2.7 1.8 14.6 10.9 4.0 0.6 0.6 3.4 16.7 28.0 60.8 59.0 45.6 44.8 51.5
0.0 0.0 0.0 0.0 0.0 0.0 0.0 6.6 4.3 0.0 0.0 37.8 20.0 2.7 1.6 0.9 1.6 0.8 2.2 4.2 4.9 6.5 11.4 15.6 5.9 4.5 0.0 0.0 0.8 5.8 3.4 14.2 14.6 6.2 0.9 0.2 3.8 4.7 9.5 22.5 32.8 53.2 57.1 55.0
0.0 0.0 0.0 0.0 0.0 0.0 0.0 5.2 35.3 3.8 2.7 1.5 3.2 5.2 4.3 4.4 0.0 0.7 0.1 3.4 4.0 5.8 4.4 1.9 6.8 4.4 0.2 0.0 0.0 0.0 0.0 10.7 14.0 16.2 10.6 6.1 13.0 6.8 4.4 11.8 49.4 34.1 32.2 29.9
0.0 0.0 0.0 0.0 0.0 0.0 0.0 12.5 24.8 0.1 21.5 12.2 5.0 4.1 5.8 6.1 5.7 0.5 0.2 3.5 3.4 7.3 13.3 4.7 2.6 1.3 0.4 0.0 0.2 0.0 0.5 16.5 6.2 4.0 4.0 2.4 5.1 8.6 5.2 10.6 11.7 25.7 26.6 18.6
0.0 0.0 0.0 0.0 0.0 0.0 0.0 47.3 8.6 1.8 2.0 0.1 2.9 10.5 14.6 7.1 1.4 5.0 2.1 3.7 1.7 2.9 10.1 4.6 8.3 3.1 0.4 2.7 0.0 0.2 0.1 8.0 7.2 7.2 3.3 1.2 10.4 8.5 5.3 5.2 8.4 11.1 6.5 15.1
0.0 0.0 0.0 0.0 0.0 0.0 0.0 1.4 0.0 3.5 3.0 1.8 5.9 4.8 2.7 3.7 2.7 0.3 0.7 1.7 4.4 4.9 2.1 0.3 0.2 0.5 0.8 2.0 4.1 3.2 3.3 6.3 6.9 12.7 0.9 3.2 16.1 17.0 8.9 5.7 3.8 4.5 8.7 14.7
0.0 0.0 0.0 0.0 0.0 0.0 0.0 0.0 0.6 14.3 17.6 5.2 2.5 0.3 1.0 1.8 1.5 5.6 1.1 0.3 2.0 0.0 0.0 0.0 0.0 0.2 0.1 0.1 0.8 1.0 5.8 5.6 8.2 12.1 6.6 42.7 12.5 1.6 2.0 2.4 2.3 2.6 2.7 2.9
0.0 0.0 0.0 0.0 0.0 0.0 0.0 0.0 0.1 10.4 18.2 1.5 2.0 2.0 2.8 0.2 0.5 2.0 1.3 0.6 0.0 0.0 0.6 3.5 5.8 3.0 1.8 0.7 0.1 0.5 1.0 4.8 17.1 22.1 12.1 9.5 5.8 1.9 2.7 2.8 3.5 1.6 1.1 0.6
0.0 0.0 0.0 0.0 0.0 0.0 0.0 0.0 0.0 5.9 23.7 5.9 0.4 4.7 3.2 5.8 2.9 3.8 1.8 0.0 0.0 0.0 3.1 10.9 17.4 7.3 2.9 1.7 0.9 0.0 0.4 2.0 20.5 20.6 22.4 29.3 6.0 0.5 0.1 0.6 6.9 0.8 0.2 0.3
0.0 0.0 0.0 0.0 0.0 0.0 0.0 0.0 0.0 2.4 26.8 0.2 0.4 2.3 4.6 2.0 3.2 5.0 0.8 1.2 0.1 0.5 8.4 15.1 14.2 10.4 3.9 9.0 6.9 4.4 8.4 14.0 30.6 27.0 33.8 14.5 1.6 0.6 0.2 10.0 10.2 0.8 0.1 0.1
0.0 0.0 0.0 0.0 0.0 0.0 0.0 0.0 0.0 0.0 10.7 0.5 0.0 0.0 0.5 0.6 0.9 7.2 2.4 7.3 5.0 8.7 20.0 17.9 13.2 12.8 9.2 7.8 2.4 8.6 13.7 18.8 19.5 19.7 32.2 33.9 1.2 1.0 4.0 4.6 0.5 0.5 0.2 0.1
0.0 0.0 0.0 0.0 0.0 0.0 0.0 2.1 0.0 0.0 1.6 0.0 0.0 0.0 0.0 0.0 0.0 0.9 2.4 6.5 6.8 9.1 21.7 14.3 5.8 9.6 10.5 7.1 16.4 1.4 13.8 8.3 14.1 10.9 18.1 6.1 3.9 3.7 1.0 0.4 1.2 1.0 0.3 0.1
0.0 0.0 0.0 0.0 0.0 0.0 0.0 0.7 0.0 0.0 6.9 0.1 0.0 0.0 0.0 0.0 0.0 0.0 2.8 0.9 1.1 3.7 3.0 8.4 7.7 10.8 5.2 10.6 5.2 3.4 2.1 0.3 6.3 8.6 5.8 2.5 4.2 1.9 0.4 0.4 1.9 1.2 0.3 0.7
0.0 0.0 0.0 0.0 0.0 0.0 0.0 0.0 0.0 0.0 1.5 12.6 0.9 0.0 0.0 0.0 0.0 0.0 0.0 0.0 0.0 0.0 0.0 5.7 6.4 6.0 1.0 3.4 1.7 0.9 1.8 1.7 3.8 7.2 4.3 2.2 1.7 2.0 1.3 1.1 0.7 0.5 0.2 0.2
0.0 0.0 0.0 0.0 0.0 0.0 0.0 0.0 0.0 0.0 0.8 14.7 3.8 0.0 0.0 0.0 0.0 0.0 0.0 0.0 0.0 0.0 3.1 5.7 3.6 0.5 1.8 0.4 1.1 3.9 1.0 3.6 8.8 10.6 6.5 6.1 5.6 4.0 3.0 3.3 2.3 1.0 0.8 1.0
0.0 0.0 0.0 0.0 0.0 0.0 0.0 29.8 0.0 0.0 0.0 9.0 10.3 0.0 0.0 0.0 0.0 0.0 0.0 0.0 0.0 0.1 1.1 2.0 0.3 0.0 1.1 4.4 6.1 3.7 3.2 1.7 1.6 3.6 3.7 7.1 7.3 4.4 2.3 2.3 1.0 0.1 0.0 0.0
0.0 0.0 0.0 0.0 0.0 0.0 1.9 7.1 0.1 0.0 0.0 12.0 15.0 3.2 0.0 0.0 0.0 0.0 0.0 0.0 0.1 0.6 1.6 1.5 0.3 0.0 0.3 4.6 6.0 1.2 0.8 0.4 0.2 0.2 0.2 1.2 0.7 0.7 0.0 0.0 0.0 0.0 0.0 0.0
0.0 0.0 0.0 0.0 0.0 0.0 0.4 0.0 0.0 0.0 0.8 3.5 19.5 7.8 1.5 0.0 2.2 3.1 0.5 1.3 0.7 0.6 0.7 0.5 0.7 0.2 0.9 12.5 1.0 0.0 0.0 0.0 0.0 0.0 0.0 0.0 0.0 0.0 0.0 0.0 0.0 0.0 0.0 0.0
0.0 0.0 0.0 0.0 0.0 10.9 0.0 0.0 0.0 0.0 3.6 17.0 6.5 4.9 17.9 0.0 2.4 2.0 2.5 0.4 10.2 0.4 3.6 0.6 0.4 4.1 17.1 9.4 1.8 0.8 0.2 0.1 0.1 0.0 0.0 0.0 0.1 0.1 0.0 0.6 0.6 0.1 0.6 2.1
0.0 0.0 4.6 58.4 4.1 0.0 0.0 1.0 19.6 14.1 5.1 3.1 3.7 0.5 8.0 1.9 3.8 6.7 6.2 3.2 5.6 8.9 1.4 0.0 5.4 8.9 3.1 1.1 1.2 1.8 1.1 1.4 0.6 0.5 0.4 0.8 0.8 1.0 1.5 1.9 2.4 2.8 3.1 3.5
0.0 26.0 27.2 0.6 0.0 0.0 5.6 51.2 39.7 16.7 18.1 1.5 1.7 0.4 1.5 2.0 11.8 6.7 3.0 10.3 5.2 11.1 4.6 4.7 10.3 15.2 6.6 3.2 4.4 1.7 0.6 0.5 0.7 1.0 1.2 1.3 1.1 1.3 1.6 2.7 1.6 2.2 2.4 2.9
0.0 0.0 0.0 0.0 8.6 27.2 36.7 35.2 14.6 6.7 3.1 0.5 0.3 0.2 0.2 0.7 1.8 8.6 5.3 10.4 12.0 16.5 5.1 14.8 20.2 9.9 4.0 3.3 3.4 1.0 0.4 0.1 0.1 0.3 0.5 0.9 1.1 1.3 1.4 2.0 2.5 3.1 3.8 4.8
0.0 5.5 26.1 19.8 35.3 52.3 30.7 20.2 8.6 7.6 3.0 2.2 0.8 3.5 1.1 0.5 6.5 13.5 8.8 13.4 15.8 3.9 18.5 26.8 21.9 6.3 2.5 2.3 1.8 1.5 0.9 0.9 0.8 1.4 1.5 1.5 1.7 2.4 3.0 3.9 6.0 6.2 7.3 10.5
14.7 33.8 47.4 26.4 22.0 9.8 8.1 4.9 3.5 3.5 4.1 3.5 1.3 2.8 5.8 5.4 16.2 20.8 22.6 14.2 5.0 18.2 22.9 27.2 14.7 7.0 7.0 4.1 3.4 3.1 5.5 5.9 5.7 6.3 6.4 7.7 7.8 9.3 10.2 9.4 10.1 8.4 10.2 13.2
19.1 11.0 19.6 11.4 8.4 6.4 6.2 4.4 3.8 3.6 5.3 4.5 5.2 5.0 6.1 13.5 20.6 14.6 10.9 12.0 13.2 13.3 16.6 22.2 9.8 6.9 6.1 5.8 5.7 6.1 7.0 7.5 8.1 8.6 8.1 11.3 10.3 8.4 12.6 11.4 10.2 8.1 8.5 8.6
6.8 8.9 13.7 6.8 6.1 8.0 8.4 6.9 7.1 3.9 7.2 5.4 5.9 11.8 16.0 19.4 12.1 12.9 11.4 9.1 18.7 16.9 9.7 8.8 8.5 8.1 8.7 9.1 9.1 9.6 9.8 9.0 8.4 8.2 7.9 8.5 8.6 8.1 8.5 8.8 8.2 8.0 6.5 6.7
6.9 12.7 12.5 11.9 9.3 12.4 12.7 10.1 8.2 5.1 5.1 11.4 6.0 16.6 17.3 9.5 14.6 18.9 13.6 22.1 24.2 13.6 12.0 10.4 10.2 10.1 11.0 10.5 10.1 10.7 9.3 7.8 7.3 7.1 6.6 6.4 5.9 4.6 3.2 4.6 7.0 5.1 5.3 5.1

GFSNW_prec_kuchsnow_375.txt.gz
Snowfall_Accumulation
0.0 0.0 0.0 0.0 0.0 0.0 0.0 0.0 17.9 0.0 0.0 11.6 27.6 21.9 3.8 0.0 0.0 0.0 1.1 2.5 5.4 9.0 8.6 10.1 13.5 7.8 1.8 0.0 0.6 2.7 1.8 14.6 10.9 4.0 0.6 0.6 3.4 16.7 28.0 60.8 59.3 46.4 46.5 53.7
0.0 0.0 0.0 0.0 0.0 0.0 0.0 6.6 4.3 0.0 0.0 37.8 20.0 2.7 1.6 0.9 1.6 0.8 2.2 4.2 4.9 6.5 11.4 15.6 5.9 4.5 0.0 0.0 0.8 5.8 3.4 14.2 14.6 6.2 0.9 0.2 3.8 4.7 9.5 22.5 33.7 54.5 57.1 57.0
0.0 0.0 0.0 0.0 0.0 0.0 0.0 5.2 35.3 3.8 2.7 1.5 3.2 5.2 4.3 4.4 0.0 0.7 0.1 3.4 4.0 5.8 4.4 1.9 6.8 4.4 0.2 0.0 0.0 0.0 0.0 10.7 14.0 16.2 10.6 6.1 13.0 6.8 4.4 11.8 49.4 34.1 32.2 29.9
0.0 0.0 0.0 0.0 0.0 0.0 0.0 12.5 24.8 0.1 21.5 12.2 5.0 4.1 5.8 6.1 5.7 0.5 0.2 3.5 3.4 7.3 13.3 4.7 2.6 1.3 0.4 0.0 0.2 0.0 0.5 16.5 6.2 4.0 4.0 2.4 5.1 8.6 5.2 10.6 11.7 25.7 26.7 18.6
0.0 0.0 0.0 0.0 0.0 0.0 0.0 47.3 8.6 1.8 2.0 0.1 2.9 10.5 14.6 7.1 1.4 5.0 2.1 3.7 1.7 2.9 10.1 4.6 8.3 3.1 0.4 2.7 0.0 0.2 0.1 8.0 7.2 7.2 3.3 1.2 10.4 8.5 5.3 5.2 8.4 11.1 6.5 15.1
0.0 0.0 0.0 0.0 0.0 0.0 0.0 1.4 0.0 3.5 3.0 1.8 5.9 4.8 2.7 3.7 2.7 0.3 0.7 1.7 4.4 4.9 2.1 0.3 0.2 0.5 0.8 2.0 4.1 3.2 3.3 6.3 6.9 12.7 0.9 3.2 16.1 17.0 8.9 5.7 3.8 4.5 8.7 14.7
0.0 0.0 0.0 0.0 0.0 0.0 0.0 0.0 0.6 14.3 17.6 5.2 2.5 0.3 1.0 1.8 1.5 5.6 1.1 0.3 2.0 0.0 0.0 0.0 0.0 0.2 0.1 0.1 0.8 1.0 5.8 5.6 8.2 12.1 6.6 42.7 12.5 1.6 2.0 2.4 2.3 2.6 2.7 2.9
0.0 0.0 0.0 0.0 0.0 0.0 0.0 0.0 0.1 10.4 18.2 1.5 2.0 2.0 2.8 0.2 0.5 2.0 1.3 0.6 0.0 0.0 0.6 3.5 5.8 3.0 1.8 0.7 0.1 0.5 1.0 4.8 17.1 22.1 12.1 9.5 5.8 1.9 2.7 2.8 3.5 1.6 1.1 0.6
0.0 0.0 0.0 0.0 0.0 0.0 0.0 0.0 0.0 5.9 23.7 5.9 0.4 4.7 3.2 5.8 2.9 3.8 1.8 0.0 0.0 0.0 3.1 10.9 17.4 7.3 2.9 1.7 0.9 0.0 0.4 2.0 20.5 20.6 22.4 29.3 6.0 0.5 0.1 0.6 6.9 0.8 0.2 0.3
0.0 0.0 0.0 0.0 0.0 0.0 0.0 0.0 0.0 2.4 26.8 0.2 0.4 2.3 4.6 2.0 3.2 5.0 0.8 1.2 0.1 0.5 8.4 15.1 14.2 10.4 3.9 9.0 6.9 4.4 8.4 14.0 30.6 27.0 33.8 14.5 1.6 0.6 0.2 10.0 10.3 0.8 0.1 0.1
0.0 0.0 0.0 0.0 0.0 0.0 0.0 0.0 0.0 0.0 10.7 0.5 0.0 0.0 0.5 0.6 0.9 7.2 2.4 7.3 5.0 8.7 20.0 17.9 13.2 12.8 9.2 7.8 2.4 8.6 13.7 18.8 19.5 19.7 32.2 33.9 1.2 1.0 4.0 4.6 0.5 0.5 0.2 0.1
0.0 0.0 0.0 0.0 0.0 0.0 0.0 2.1 0.0 0.0 1.6 0.0 0.0 0.0 0.0 0.0 0.0 0.9 2.4 6.5 6.8 9.1 21.7 14.3 5.8 9.6 10.5 7.1 16.4 1.4 13.8 8.3 14.1 10.9 18.1 6.1 3.9 3.7 1.0 0.4 1.2 1.0 0.3 0.1
0.0 0.0 0.0 0.0 0.0 0.0 0.0 0.7 0.0 0.0 6.9 0.1 0.0 0.0 0.0 0.0 0.0 0.0 2.8 0.9 1.1 3.7 3.0 8.4 7.7 10.8 5.2 10.6 5.2 3.4 2.1 0.3 6.3 8.6 5.8 2.5 4.2 1.9 0.4 0.4 1.9 1.2 0.3 0.7
0.0 0.0 0.0 0.0 0.0 0.0 0.0 0.0 0.0 0.0 1.5 12.6 0.9 0.0 0.0 0.0 0.0 0.0 0.0 0.0 0.0 0.0 0.0 5.7 6.4 6.0 1.0 3.4 1.7 0.9 1.8 1.7 3.8 7.2 4.3 2.2 1.7 2.0 1.3 1.1 0.7 0.5 0.2 0.2
0.0 0.0 0.0 0.0 0.0 0.0 0.0 0.0 0.0 0.0 0.8 14.7 3.8 0.0 0.0 0.0 0.0 0.0 0.0 0.0 0.0 0.0 3.1 5.7 3.6 0.5 1.8 0.4 1.1 3.9 1.0 3.6 8.8 10.6 6.5 6.1 5.6 4.0 3.0 3.3 2.3 1.0 0.8 1.0
0.0 0.0 0.0 0.0 0.0 0.0 0.0 29.8 0.0 0.0 0.0 9.0 10.3 0.0 0.0 0.0 0.0 0.0 0.0 0.0 0.0 0.1 1.1 2.0 0.3 0.0 1.1 4.4 6.1 3.7 3.2 1.7 1.6 3.6 3.7 7.1 7.3 4.4 2.3 2.3 1.0 0.1 0.0 0.0
0.0 0.0 0.0 0.0 0.0 0.0 1.9 7.1 0.1 0.0 0.0 12.0 15.0 3.2 0.0 0.0 0.0 0.0 0.0 0.0 0.1 0.6 1.6 1.5 0.3 0.0 0.3 4.6 6.0 1.2 0.8 0.4 0.2 0.2 0.2 1.2 0.7 0.7 0.0 0.0 0.0 0.0 0.0 0.0
0.0 0.0 0.0 0.0 0.0 0.0 0.4 0.0 0.0 0.0 0.8 3.5 19.5 7.8 1.5 0.0 2.2 3.1 0.5 1.3 0.7 0.6 0.7 0.5 0.7 0.2 0.9 12.5 1.0 0.0 0.0 0.0 0.0 0.0 0.0 0.0 0.0 0.0 0.0 0.0 0.0 0.0 0.0 0.0
0.0 0.0 0.0 0.0 0.0 10.9 0.0 0.0 0.0 0.0 3.6 17.0 6.5 4.9 17.9 0.0 2.4 2.0 2.5 0.4 10.2 0.4 3.6 0.6 0.4 4.1 17.1 9.4 1.8 0.8 0.2 0.1 0.1 0.0 0.0 0.0 0.1 0.1 0.0 0.6 0.6 0.1 0.6 2.1
0.0 0.0 4.6 58.4 4.1 0.0 0.0 1.0 19.6 14.1 5.1 3.1 3.7 0.5 8.0 1.9 3.8 6.7 6.2 3.2 5.6 8.9 1.4 0.0 5.4 8.9 3.1 1.1 1.2 1.8 1.1 1.4 0.6 0.5 0.4 0.8 0.8 1.0 1.5 1.9 2.4 2.8 3.1 3.5
0.0 26.0 27.2 0.6 0.0 0.0 5.6 51.2 39.7 16.7 18.1 1.5 1.7 0.4 1.5 2.0 11.8 6.7 3.0 10.3 5.2 11.1 4.6 4.7 10.3 15.2 6.6 3.2 4.4 1.7 0.6 0.5 0.7 1.0 1.2 1.3 1.1 1.3 1.6 2.7 1.6 2.2 2.4 2.9
0.0 0.0 0.0 0.0 8.6 27.4 37.4 35.5 14.6 6.7 3.1 0.5 0.3 0.2 0.2 0.7 1.8 8.6 5.3 10.4 12.0 16.5 5.1 14.8 20.2 9.9 4.0 3.3 3.4 1.0 0.4 0.1 0.1 0.3 0.5 0.9 1.1 1.3 1.4 2.0 2.5 3.1 3.8 4.8
0.0 5.5 26.1 19.8 35.3 54.8 31.8 20.3 8.8 7.6 3.0 2.2 0.8 3.5 1.1 0.5 6.5 13.5 8.8 13.4 15.8 3.9 18.5 26.8 21.9 6.3 2.5 2.3 1.8 1.5 0.9 0.9 0.8 1.4 1.5 1.5 1.7 2.4 3.0 3.9 6.0 6.2 7.3 10.5
14.7 33.8 47.4 27.5 22.6 10.0 8.3 4.9 3.5 3.5 4.1 3.5 1.3 2.8 5.8 5.4 16.2 20.8 22.6 14.2 5.0 18.2 22.9 27.2 14.7 7.0 7.0 4.1 3.4 3.1 5.5 5.9 5.7 6.3 6.4 7.7 7.8 9.3 10.2 9.4 10.1 8.4 10.2 13.2
19.1 11.0 19.6 11.4 8.4 6.4 6.2 4.4 3.8 3.6 5.3 4.5 5.2 5.0 6.1 13.5 20.6 14.6 10.9 12.0 13.2 13.3 16.6 22.2 9.8 6.9 6.1 5.8 5.7 6.1 7.0 7.5 8.1 8.6 8.1 11.3 10.3 8.4 12.6 11.4 10.2 8.1 8.5 8.6
6.8 8.9 13.7 6.8 6.1 8.0 8.4 6.9 7.1 3.9 7.2 5.4 5.9 11.8 16.0 19.4 12.1 12.9 11.4 9.1 18.7 16.9 9.7 8.8 8.5 8.1 8.7 9.1 9.1 9.6 9.8 9.0 8.4 8.2 7.9 8.5 8.6 8.1 8.5 8.8 8.2 8.0 6.5 6.7
6.9 12.7 12.5 11.9 9.3 12.4 12.7 10.1 8.2 5.1 5.1 11.4 6.0 16.6 17.3 9.5 14.6 18.9 13.6 22.1 24.2 13.6 12.0 10.4 10.2 10.1 11.0 10.5 10.1 10.7 9.3 7.8 7.3 7.1 6.6 6.4 5.9 4.6 3.2 4.6 7.0 5.1 5.3 5.1

GFSNW_prec_kuchsnow_381.txt.gz
Snowfall_Accumulation
0.0 0.0 0.0 0.0 0.0 0.0 0.0 0.0 17.9 0.0 0.0 11.6 27.6 21.9 3.8 0.0 0.0 0.0 1.1 2.5 5.4 9.0 8.6 10.1 13.5 7.8 1.8 0.0 0.6 2.7 1.8 14.6 10.9 4.0 0.6 0.6 3.4 16.7 28.0 60.8 59.3 46.4 46.5 53.7
0.0 0.0 0.0 0.0 0.0 0.0 0.0 6.6 4.3 0.0 0.0 37.8 20.0 2.7 1.6 0.9 1.6 0.8 2.2 4.2 4.9 6.5 11.4 15.6 5.9 4.5 0.0 0.0 0.8 5.8 3.4 14.2 14.6 6.2 0.9 0.2 3.8 4.7 9.5 22.5 33.7 54.5 57.2 57.3
0.0 0.0 0.0 0.0 0.0 0.0 0.0 5.2 35.3 3.8 2.7 1.5 3.2 5.2 4.3 4.4 0.0 0.7 0.1 3.4 4.0 5.8 4.4 1.9 6.8 4.4 0.2 0.0 0.0 0.0 0.0 10.7 14.0 16.2 10.6 6.1 13.0 6.8 4.4 11.8 49.4 34.1 32.2 29.9
0.0 0.0 0.0 0.0 0.0 0.0 0.0 12.5 24.8 0.1 21.5 12.2 5.0 4.1 5.8 6.1 5.7 0.5 0.2 3.5 3.4 7.3 13.3 4.7 2.6 1.3 0.4 0.0 0.2 0.0 0.5 16.5 6.2 4.0 4.0 2.4 5.1 8.6 5.2 10.6 11.7 25.7 26.7 18.6
0.0 0.0 0.0 0.0 0.0 0.0 0.0 47.3 8.6 1.8 2.0 0.1 2.9 10.5 14.6 7.1 1.4 5.0 2.1 3.7 1.7 2.9 10.1 4.6 8.3 3.1 0.4 2.7 0.0 0.2 0.1 8.0 7.2 7.2 3.3 1.2 10.4 8.5 5.3 5.2 8.4 11.1 6.5 15.1
0.0 0.0 0.0 0.0 0.0 0.0 0.0 1.4 0.0 3.5 3.0 1.8 5.9 4.8 2.7 3.7 2.7 0.3 0.7 1.7 4.4 4.9 2.1 0.3 0.2 0.5 0.8 2.0 4.1 3.2 3.3 6.3 6.9 12.7 0.9 3.2 16.1 17.0 8.9 5.7 3.8 4.5 8.7 14.7
0.0 0.0 0.0 0.0 0.0 0.0 0.0 0.0 0.6 14.5 17.6 5.2 2.5 0.3 1.0 1.8 1.5 5.6 1.1 0.3 2.0 0.0 0.0 0.0 0.0 0.2 0.1 0.1 0.8 1.0 5.8 5.6 8.2 12.1 6.6 42.7 12.5 1.6 2.0 2.4 2.3 2.6 2.7 2.9
0.0 0.0 0.0 0.0 0.0 0.0 0.0 0.0 0.1 10.6 18.4 1.5 2.0 2.0 2.8 0.2 0.5 2.0 1.3 0.6 0.0 0.0 0.6 3.5 5.8 3.0 1.8 0.7 0.1 0.5 1.0 4.8 17.1 22.1 12.1 9.5 5.8 1.9 2.7 2.8 3.5 1.6 1.1 0.6
0.0 0.0 0.0 0.0 0.0 0.0 0.0 0.0 0.0 5.9 23.9 5.9 0.4 4.7 3.2 5.8 2.9 3.8 1.8 0.0 0.0 0.0 3.1 10.9 17.4 7.3 2.9 1.7 0.9 0.0 0.4 2.0 20.5 20.6 22.4 29.3 6.0 0.5 0.1 0.6 6.9 0.8 0.2 0.3
0.0 0.0 0.0 0.0 0.0 0.0 0.0 0.0 0.0 2.4 26.9 0.2 0.4 2.3 4.6 2.0 3.2 5.0 0.8 1.2 0.1 0.5 8.4 15.1 14.2 10.4 3.9 9.0 6.9 4.4 8.4 14.0 30.6 27.0 33.8 14.5 1.6 0.6 0.2 10.1 10.3 0.8 0.1 0.1
0.0 0.0 0.0 0.0 0.0 0.0 0.0 0.0 0.0 0.0 10.7 0.5 0.0 0.0 0.5 0.6 0.9 7.2 2.4 7.3 5.0 8.7 20.0 17.9 13.2 12.8 9.2 7.8 2.4 8.6 13.7 18.8 19.5 19.7 32.2 33.9 1.2 1.0 4.0 4.6 0.5 0.5 0.2 0.1
0.0 0.0 0.0 0.0 0.0 0.0 0.0 2.1 0.0 0.0 1.6 0.0 0.0 0.0 0.0 0.0 0.0 0.9 2.4 6.5 6.8 9.1 21.7 14.3 5.8 9.6 10.5 7.1 16.4 1.4 13.8 8.3 14.1 10.9 18.1 6.1 3.9 3.7 1.0 0.4 1.2 1.0 0.3 0.1
0.0 0.0 0.0 0.0 0.0 0.0 0.0 0.7 0.0 0.0 6.9 0.1 0.0 0.0 0.0 0.0 0.0 0.0 2.8 0.9 1.1 3.7 3.0 8.4 7.7 10.8 5.2 10.6 5.2 3.4 2.1 0.3 6.3 8.6 5.8 2.5 4.2 1.9 0.4 0.4 1.9 1.2 0.3 0.7
0.0 0.0 0.0 0.0 0.0 0.0 0.0 0.0 0.0 0.0 1.5 12.8 0.9 0.0 0.0 0.0 0.0 0.0 0.0 0.0 0.0 0.0 0.0 5.7 6.4 6.0 1.0 3.4 1.7 0.9 1.8 1.7 3.8 7.2 4.3 2.2 1.7 2.0 1.3 1.1 0.7 0.5 0.2 0.2
0.0 0.0 0.0 0.0 0.0 0.0 0.0 0.0 0.0 0.0 0.8 14.9 4.3 0.0 0.0 0.0 0.0 0.0 0.0 0.0 0.0 0.0 3.1 5.7 3.6 0.5 1.8 0.4 1.1 3.9 1.0 3.6 8.8 10.6 6.5 6.1 5.6 4.0 3.0 3.3 2.3 1.0 0.8 1.0
0.0 0.0 0.0 0.0 0.0 0.0 0.0 29.8 0.0 0.0 0.0 9.1 11.5 0.0 0.0 0.0 0.0 0.0 0.0 0.0 0.0 0.1 1.1 2.0 0.3 0.0 1.1 4.4 6.1 3.7 3.2 1.7 1.6 3.6 3.7 7.1 7.3 4.4 2.3 2.3 1.0 0.1 0.0 0.0
0.0 0.0 0.0 0.0 0.0 0.0 1.9 7.1 0.1 0.0 0.0 12.1 15.4 3.2 0.0 0.0 0.0 0.0 0.0 0.0 0.1 0.6 1.6 1.5 0.3 0.0 0.3 4.6 6.0 1.2 0.8 0.4 0.2 0.2 0.2 1.2 0.7 0.7 0.0 0.0 0.0 0.0 0.0 0.0
0.0 0.0 0.0 0.0 0.0 0.0 0.4 0.0 0.0 0.0 0.8 3.5 20.0 7.8 1.5 0.0 2.2 3.1 0.5 1.3 0.7 0.6 0.7 0.5 0.7 0.2 0.9 12.5 1.0 0.0 0.0 0.0 0.0 0.0 0.0 0.0 0.0 0.0 0.0 0.0 0.0 0.0 0.0 0.0
0.0 0.0 0.0 0.0 0.0 10.9 0.0 0.0 0.0 0.0 3.6 17.4 6.5 5.6 19.2 0.0 2.4 2.0 2.5 0.4 10.2 0.4 3.6 0.6 0.4 4.1 17.1 9.4 1.8 0.8 0.2 0.1 0.1 0.0 0.0 0.0 0.1 0.1 0.0 0.6 0.6 0.1 0.6 2.1
0.0 0.0 4.6 58.4 4.1 0.0 0.0 1.0 19.6 14.1 5.1 3.1 3.8 0.5 8.0 1.9 3.8 6.7 6.2 3.2 5.6 8.9 1.4 0.0 5.4 8.9 3.1 1.1 1.2 1.8 1.1 1.4 0.6 0.5 0.4 0.8 0.8 1.0 1.5 1.9 2.4 2.8 3.1 3.5
0.0 26.0 27.2 0.6 0.0 0.0 5.6 51.2 39.8 16.7 18.2 1.5 1.7 0.4 1.5 2.0 11.8 6.7 3.0 10.3 5.2 11.1 4.6 4.7 10.3 15.2 6.6 3.2 4.4 1.7 0.6 0.5 0.7 1.0 1.2 1.3 1.1 1.3 1.6 2.7 1.6 2.2 2.4 2.9
0.0 0.0 0.0 0.0 8.6 27.4 37.4 35.5 14.9 7.0 3.1 0.5 0.3 0.2 0.2 0.7 1.8 8.6 5.3 10.4 12.0 16.5 5.1 14.8 20.2 9.9 4.0 3.3 3.4 1.0 0.4 0.1 0.1 0.3 0.5 0.9 1.1 1.3 1.4 2.0 2.5 3.1 3.8 4.8
0.0 5.5 26.1 19.8 35.3 54.8 32.2 20.4 9.4 7.7 3.1 2.2 0.8 3.5 1.1 0.5 6.5 13.5 8.8 13.4 15.8 3.9 18.5 26.8 21.9 6.3 2.5 2.3 1.8 1.5 0.9 0.9 0.8 1.4 1.5 1.5 1.7 2.4 3.0 3.9 6.0 6.2 7.3 10.5
14.7 33.8 47.4 27.5 22.6 10.0 8.3 5.4 3.9 3.6 4.3 3.7 1.3 2.8 5.8 5.4 16.2 20.8 22.6 14.2 5.0 18.2 22.9 27.2 14.7 7.0 7.0 4.1 3.4 3.1 5.5 5.9 5.7 6.3 6.4 7.7 7.8 9.3 10.2 9.4 10.1 8.4 10.2 13.2
19.1 11.0 19.6 11.4 8.4 6.4 6.4 4.5 3.8 3.6 5.3 4.5 5.2 5.0 6.1 13.5 20.6 14.6 10.9 12.0 13.2 13.3 16.6 22.2 9.8 6.9 6.1 5.8 5.7 6.1 7.0 7.5 8.1 8.6 8.1 11.3 10.3 8.4 12.6 11.4 10.2 8.1 8.5 8.6
6.8 8.9 13.7 6.8 6.1 8.0 8.4 6.9 7.1 3.9 7.2 5.4 5.9 11.8 16.0 19.4 12.1 12.9 11.4 9.1 18.7 16.9 9.7 8.8 8.5 8.1 8.7 9.1 9.1 9.6 9.8 9.0 8.4 8.2 7.9 8.5 8.6 8.1 8.5 8.8 8.2 8.0 6.5 6.7
6.9 12.7 12.5 11.9 9.3 12.4 12.7 10.1 8.2 5.1 5.1 12.2 6.9 19.4 17.9 9.5 14.6 18.9 13.6 22.1 24.2 13.6 12.0 10.4 10.2 10.1 11.0 10.5 10.1 10.7 9.3 7.8 7.3 7.1 6.6 6.4 5.9 4.6 3.2 4.6 7.0 5.1 5.3 5.1